Location: Strada George Coșbuc
(47.6577°N, 23.5639°E)
Time: 22:18:43
(UTC+03:00)

ISS - Pass Details

Date: 09 September 2017
Orbit: 401 x 407 km, 51.6° (Epoch: 25 September)

Event Time Altitude Azimuth Distance (km) Brightness Sun altitude
Exits shadow 05:09:18 53° 274° (W) 511 -3.7 -17.6°
Maximum altitude 05:09:55 72° 338° (NNW) 433 -3.8 -17.5°
Drops below altitude 10° 05:13:14 10° 65° (ENE) 1,475 0.3 -17.0°
Sets 05:15:20 0° 67° (ENE) 2,338 1.8 -16.7°
